Location: Banios
(43.0451°N, 0.2335°E)
Time: 12:40:13
(UTC+00:00)

Cosmos 1092 Rocket - Pass Details

Date: 25 January 2021
Orbit: 954 x 995 km, 83.0° (Epoch: 25 February)

Event Time Altitude Azimuth Distance (km) Brightness Sun altitude
Rises 05:25:34 0° 353° (N) 3,643 6.9 -21.0°
Reaches altitude 10° 05:28:04 10° 355° (N) 2,695 6.2 -20.6°
Maximum altitude 05:34:14 79° 82° (E) 983 4.1 -19.4°
Drops below altitude 10° 05:40:25 10° 169° (S) 2,696 6.6 -18.3°
Sets 05:42:55 0° 171° (S) 3,645 7.3 -17.9°
